Location: Derby
(52.9213°N, 1.4761°W)
Time: 15:44:02
(UTC+01:00)

Vanguard 1 - Pass Details

Date: 26 May 2025
Orbit: 649 x 3822 km, 34.3° (Epoch: 14 June)

Event Time Altitude Azimuth Distance (km) Brightness Sun altitude
Rises 17:49:56 0° 240° (WSW) 7,890 15.6 27.7°
Reaches altitude 10° 17:56:15 10° 234° (SW) 6,661 15.2 26.8°
Maximum altitude 18:13:28 36° 178° (S) 3,762 13.2 24.2°
Drops below altitude 10° 18:24:33 10° 118° (ESE) 4,327 12.9 22.5°
Sets 18:27:38 0° 109° (ESE) 4,952 13.1 22.1°
